Showing default

IRIDIUM 149, 43250

Orbit data source: Space-Track

IRIDIUM 149, 43250 is a payload satellite owned by Iridium (US) in LEO that was launched on Fri, 30 Mar 2018 UTC via an FALCON 9 launch vehicle from the Air Force Western Test Range (AFWTR). Payload-class satellites include a variety of spacecraft equipped with specific instruments for various scientific and technological missions. These include communications satellites like Starlink; space stations such as the ISS; scientific satellites like the Hubble; Earth observation satellites from companies like Planet Labs, Umbra, and HawkEye 360; GPS; miniature CubeSats for education and research; and military/defense satellites.

Loading next visibility...
Identifier
43250, 2018-030B
Orbit
LEO
Country
Flag of USUS
Related business
Manufacturer
OATK SSG Gilbert
Mission
Operational Commercial Communications
Bus & Motor
ELITEBUS, Unknown motor
Mass
860 kg wet, 700 kg dry
Launch date (UTC)
2018-03-30 (7 years ago)
Launch vehicle
FALCON 9
Launch site
Air Force Western Test Range (AFWTR)
Object type
Payload
Rocket body
Debris
Shape & HBR
Trap Box + 2 Pan, 4.7 m
Radar Cross Section
14.423 m², Large (>1 m²)

Expand to show TLE details & history
Last TLE update: 1 day ago

TLE from 1 day ago
0 IRIDIUM 149
1 43250U 18030B   25260.79087184  .00000099  00000-0  28416-4 0  9998
2 43250  86.3958  44.2268 0002217  89.8903 270.2547 14.34218430391112
Epoch: 2025-09-17T18:58Z
TLE epoch observation values (Epoch: 2025-09-17T18:58:51.326Z)
Latitude
-0.00004°
Longitude
122.55118°
Altitude
780.709 km
Speed
7.463 km/s
True Right ascension
02h 56m 54s
True Declination
0° 00' 00"
Sunlit
Object was in full shadow at epoch
Visualization orbit readout
Latitude
Unknown
Longitude
Unknown
Altitude
Unknown
Speed
Unknown
Apparent Right ascension
Unknown
Apparent Declination
Unknown
Sunlit
N/A
Visualization observer readout
Local Sidereal Time
11:43:59
Azimuth
Unknown
Elevation
Unknown
Doppler factor
Unknown
Orbital elements
Apogee altitude
776.215 km
Perigee altitude
773.044 km
Semi-major axis
7,152.766 km
Eccentricity
0.00022
Inclination
86.3958°
RAAN
44.2268°
Arg. of periapsis
89.8903°
True anomaly
270.2293°
Mean anomaly
270.2547°
Eccentric anomaly
270.242°
Mean motion
3.58783 °/min
Orbital period
100.34 mins
BSTAR
0.000028416
Loading maneuver chart data...
Computing Atmospheric mass density...
Loading historical data...
Loading historical data...
Loading historical data...
Loading historical data...
Loading historical data...
Loading historical data...
Loading historical data...

Documentation

Showing up to 5 results
|